This demonstration page uses our WeatherBlox Daily Observations layout. Learn more.

Left ArrowRight Arrow

38.88101, -77.10428

Hourly Observations for January 14, 2021

Temp ( °F °C ) Dew Point ( °F °C ) Humidity (%) Winds ( mph kmh ) Pressure ( in mb ) Visibility ( mi km ) Precip ( " mm )
12:52 am 00:52 Mostly Clear 34 1.1 31 -0.6 89 89 Calm 29.85 1011 9 14 0.00 0.00
1:52 am 01:52 Mostly Clear 35 1.7 32 0 89 89 Calm 29.86 1011 8 13 0.00 0.00
2:52 am 02:52 Mostly Clear 35 1.7 32 0 89 89 Calm 29.85 1011 7 11 0.00 0.00
3:52 am 03:52 Mostly Clear 32 0 30 -1.1 92 92 Calm 29.84 1011 7 11 0.00 0.00
4:52 am 04:52 Mostly Clear with Mist and Fog 32 0 31 -0.6 96 96 Calm 29.85 1011 6 10 0.00 0.00
5:52 am 05:52 Mostly Clear with Mist and Fog 33 0.6 31 -0.6 92 92 Calm 29.85 1011 6 10 0.00 0.00
6:52 am 06:52 Partly Cloudy 33 0.6 31 -0.6 92 92 Calm 29.85 1011 8 13 0.00 0.00
7:52 am 07:52 Mostly Cloudy 33 0.6 30 -1.1 89 89 Calm 29.85 1011 7 11 0.00 0.00
8:52 am 08:52 Mostly Cloudy 37 2.8 34 1.1 89 89 Calm 29.87 1011 7 11 0.00 0.00
9:52 am 09:52 Mostly Cloudy 39 3.9 34 1.1 82 82 Calm 29.88 1012 8 13 0.00 0.00
10:52 am 10:52 Partly Cloudy 45 7.2 34 1.1 66 66 Calm 29.88 1012 10 16 0.00 0.00
11:52 am 11:52 Mostly Sunny 52 11.1 29 -1.7 41 41 NNW 13 20 29.85 1011 10 16 0.00 0.00
1:52 pm 13:52 Partly Cloudy 55 12.8 28 -2.2 35 35 undefined N/A 29.80 1009 10 16 0.00 0.00
2:52 pm 14:52 Mostly Sunny 54 12.2 27 -2.8 35 35 SE 3 6 29.79 1009 10 16 0.00 0.00
3:52 pm 15:52 Partly Cloudy 54 12.2 27 -2.8 35 35 Calm 29.80 1009 10 16 0.00 0.00
4:52 pm 16:52 Mostly Cloudy 51 10.6 26 -3.3 38 38 S 5 7 29.80 1009 10 16 0.00 0.00
5:52 pm 17:52 Partly Cloudy 49 9.4 29 -1.7 46 46 S 6 9 29.81 1010 10 16 0.00 0.00
6:52 pm 18:52 Partly Cloudy 44 6.7 30 -1.1 58 58 S 7 11 29.83 1010 10 16 0.00 0.00
7:52 pm 19:52 Mostly Cloudy 45 7.2 30 -1.1 56 56 Calm 29.84 1011 10 16 0.00 0.00
8:52 pm 20:52 Mostly Cloudy 44 6.7 28 -2.2 53 53 Calm 29.85 1011 10 16 0.00 0.00
9:52 pm 21:52 Mostly Cloudy 42 5.6 28 -2.2 58 58 Calm 29.85 1011 10 16 0.00 0.00
10:52 pm 22:52 Partly Cloudy 39 3.9 32 0 76 76 N 3 6 29.85 1011 10 16 0.00 0.00
11:52 pm 23:52 Mostly Cloudy 38 3.3 31 -0.6 76 76 NE 3 6 29.87 1012 10 16 0.00 0.00

Powered by AerisWeather